FW4804 Weather Reports


time (UTC)temp
F
wind
direction
speed
knots
gust
knots
rain 1hr
in
rain 24hr
in
rain mn
in
humidity
%
barometer
mb
20260906080005 77 248 0.9 2.6 0.00 0.00 0.00 44 1018.9
20260906075505 77 270 0.0 1.7 0.00 0.00 0.00 44 1018.8
20260906075005 76 245 0.0 1.7 0.00 0.00 0.00 44 1018.8
20260906074505 75 254 0.9 1.7 0.00 0.00 0.00 46 1018.9
20260906074005 74 266 0.9 1.7 0.00 0.00 0.00 45 1019.0
20260906073505 74 0 0.0 0.0 0.00 0.00 0.00 44 1018.9
20260906073005 73 279 0.0 1.7 0.00 0.00 0.00 48 1018.8
20260906072505 72 279 0.0 1.7 0.00 0.00 0.00 51 1019.0
20260906072005 71 0 0.0 0.0 0.00 0.00 0.00 54 1019.0
20260906071505 70 0 0.0 0.0 0.00 0.00 0.00 54 1019.0
20260906071005 70 0 0.0 0.0 0.00 0.00 0.00 55 1019.1
20260906070505 70 0 0.0 0.0 0.00 0.00 0.00 54 1019.0
20260906065505 67 0 0.0 0.0 0.00 0.00 0.00 56 1019.0
20260906065006 67 0 0.0 0.0 0.00 0.00 0.00 55 1019.1
20260906064505 66 0 0.0 0.0 0.00 0.00 0.00 60 1019.0
20260906064005 65 0 0.0 0.0 0.00 0.00 0.00 59 1018.9
20260906063505 64 0 0.0 0.0 0.00 0.00 0.00 62 1018.9
20260906063005 63 0 0.0 0.0 0.00 0.00 0.00 66 1018.9
20260906062005 62 0 0.0 0.0 0.00 0.00 0.00 70 1019.0
20260906061505 62 0 0.0 0.0 0.00 0.00 0.00 72 1018.8
20260906061005 60 0 0.0 0.0 0.00 0.00 0.00 73 1018.9
20260906060505 59 0 0.0 0.0 0.00 0.00 0.00 75 1019.1
20260906060005 58 0 0.0 0.0 0.00 0.00 0.00 76 1019.2
20260906055505 57 0 0.0 0.0 0.00 0.00 0.00 79 1019.0
20260906055005 55 0 0.0 0.0 0.00 0.00 0.00 82 1019.0
20260906054505 54 0 0.0 0.0 0.00 0.00 0.00 83 1019.0
20260906054005 54 0 0.0 0.0 0.00 0.00 0.00 86 1019.0
20260906053505 53 0 0.0 0.0 0.00 0.00 0.00 87 1019.1
20260906052505 52 0 0.0 0.0 0.00 0.00 0.00 88 1019.4
20260906051505 52 0 0.0 0.0 0.00 0.00 0.00 88 1019.2
20260906051005 51 0 0.0 0.0 0.00 0.00 0.00 88 1019.3
20260906050505 51 0 0.0 0.0 0.00 0.00 0.00 89 1019.0
20260906050005 51 0 0.0 0.0 0.00 0.00 0.00 90 1019.1
20260906045505 51 0 0.0 0.0 0.00 0.00 0.00 90 1019.2
20260906045005 50 0 0.0 0.0 0.00 0.00 0.00 90 1019.2
20260906044505 50 0 0.0 0.0 0.00 0.00 0.00 90 1019.1
20260906044005 50 0 0.0 0.0 0.00 0.00 0.00 89 1019.0
20260906043505 49 0 0.0 0.0 0.00 0.00 0.00 89 1019.1
20260906042505 50 0 0.0 0.0 0.00 0.00 0.00 89 1018.9
20260906042005 50 0 0.0 0.0 0.00 0.00 0.00 89 1019.1
20260906041505 50 0 0.0 0.0 0.00 0.00 0.00 89 1018.8
20260906041005 49 0 0.0 0.0 0.00 0.00 0.00 89 1018.9
20260906040505 49 0 0.0 0.0 0.00 0.00 0.00 89 1018.9
20260906040005 49 0 0.0 0.0 0.00 0.00 0.00 89 1019.0
20260906035505 50 0 0.0 0.0 0.00 0.00 0.00 89 1018.8
20260906035006 50 0 0.0 0.0 0.00 0.00 0.00 90 1019.0
20260906034505 50 0 0.0 0.0 0.00 0.00 0.00 89 1018.8
20260906034005 49 0 0.0 0.0 0.00 0.00 0.00 88 1018.8
20260906033505 49 0 0.0 0.0 0.00 0.00 0.00 88 1018.9
20260906033005 49 0 0.0 0.0 0.00 0.00 0.00 88 1018.8
20260906032505 50 0 0.0 0.0 0.00 0.00 0.00 88 1018.9
20260906032005 50 0 0.0 0.0 0.00 0.00 0.00 88 1018.9
20260906031005 50 0 0.0 0.0 0.00 0.00 0.00 87 1018.8
20260906030005 50 0 0.0 0.0 0.00 0.00 0.00 86 1018.7
20260906025005 50 0 0.0 0.0 0.00 0.00 0.00 86 1018.6
20260906024505 51 0 0.0 0.0 0.00 0.00 0.00 85 1019.0
20260906024005 51 0 0.0 0.0 0.00 0.00 0.00 85 1018.9
20260906023505 51 0 0.0 0.0 0.00 0.00 0.00 86 1018.6
20260906023006 51 0 0.0 0.0 0.00 0.00 0.00 87 1018.7
20260906022505 51 0 0.0 0.0 0.00 0.00 0.00 87 1018.6
20260906022005 51 0 0.0 0.0 0.00 0.00 0.00 88 1018.5
20260906021505 50 0 0.0 0.0 0.00 0.00 0.00 86 1018.7
20260906021006 50 0 0.0 0.0 0.00 0.00 0.00 85 1018.7
20260906020505 51 0 0.0 0.0 0.00 0.00 0.00 86 1018.7
20260906015005 51 0 0.0 0.0 0.00 0.00 0.00 85 1018.9
20260906014505 51 0 0.0 0.0 0.00 0.00 0.00 85 1018.8
20260906014005 51 0 0.0 0.0 0.00 0.00 0.00 85 1018.9
20260906013506 51 0 0.0 0.0 0.00 0.00 0.00 85 1018.8
20260906013005 51 0 0.0 0.0 0.00 0.00 0.00 85 1018.9
20260906012505 51 0 0.0 0.0 0.00 0.00 0.00 84 1019.0
20260906012005 51 0 0.0 0.0 0.00 0.00 0.00 84 1018.8
20260906010005 51 0 0.0 0.0 0.00 0.00 0.00 84 1018.9
20260906005506 51 0 0.0 0.0 0.00 0.00 0.00 83 1018.9
20260906005005 52 0 0.0 0.0 0.00 0.00 0.00 84 1018.8
20260906004005 52 0 0.0 0.0 0.00 0.00 0.00 83 1019.0
20260906003506 52 0 0.0 0.0 0.00 0.00 0.00 83 1019.0
20260906003006 52 0 0.0 0.0 0.00 0.00 0.00 83 1019.1
20260906002505 52 0 0.0 0.0 0.00 0.00 0.00 82 1018.9
20260906002005 52 0 0.0 0.0 0.00 0.00 0.00 82 1019.1
20260906001505 52 0 0.0 0.0 0.00 0.00 0.00 82 1019.2
20260906001005 53 0 0.0 0.0 0.00 0.00 0.00 82 1019.2
20260906000505 53 0 0.0 0.0 0.00 0.00 0.00 81 1019.2
20260906000006 53 0 0.0 0.0 0.00 0.00 0.00 81 1019.3
20260905235505 53 0 0.0 0.0 0.00 0.00 0.00 80 1019.2
20260905234506 53 0 0.0 0.0 0.00 0.00 0.00 80 1019.4
20260905234006 53 0 0.0 0.0 0.00 0.00 0.00 81 1019.3
20260905233505 53 0 0.0 0.0 0.00 0.00 0.00 80 1019.5
20260905233005 53 0 0.0 0.0 0.00 0.00 0.00 79 1019.5
20260905232505 53 0 0.0 0.0 0.00 0.00 0.00 79 1019.5
20260905232005 54 0 0.0 0.0 0.00 0.00 0.00 79 1019.4
20260905231505 54 0 0.0 0.0 0.00 0.00 0.00 78 1019.5
20260905231005 54 0 0.0 0.0 0.00 0.00 0.00 78 1019.4
20260905230505 54 0 0.0 0.0 0.00 0.00 0.00 77 1019.6
20260905230006 55 0 0.0 0.0 0.00 0.00 0.00 75 1019.8
20260905225505 55 0 0.0 0.0 0.00 0.00 0.00 75 1019.8
20260905225005 55 0 0.0 0.0 0.00 0.00 0.00 75 1019.8
20260905224505 54 0 0.0 0.0 0.00 0.00 0.00 74 1019.7
20260905223505 54 0 0.0 0.0 0.00 0.00 0.00 74 1019.8
20260905223005 55 0 0.0 0.0 0.00 0.00 0.00 74 1019.8
20260905222505 55 0 0.0 0.0 0.00 0.00 0.00 73 1019.8
20260905222005 56 0 0.0 0.0 0.00 0.00 0.00 73 1019.9
20260905221505 56 0 0.0 0.0 0.00 0.00 0.00 72 1019.7
20260905221005 57 0 0.0 0.0 0.00 0.00 0.00 72 1019.6
20260905220505 57 0 0.0 0.0 0.00 0.00 0.00 72 1019.6
20260905220006 56 0 0.0 0.0 0.00 0.00 0.00 72 1019.6
20260905215505 56 0 0.0 0.0 0.00 0.00 0.00 72 1019.8
20260905215005 56 0 0.0 0.0 0.00 0.00 0.00 73 1019.7
20260905214505 56 0 0.0 0.0 0.00 0.00 0.00 72 1019.7
20260905213505 56 0 0.0 0.0 0.00 0.00 0.00 72 1020.0
20260905213005 57 0 0.0 0.0 0.00 0.00 0.00 72 1019.8
20260905212505 57 0 0.0 0.0 0.00 0.00 0.00 71 1019.9
20260905212005 57 0 0.0 0.0 0.00 0.00 0.00 71 1019.8
20260905211005 58 0 0.0 0.0 0.00 0.00 0.00 71 1019.6
20260905210010 58 0 0.0 0.0 0.00 0.00 0.00 70 1019.8
20260905205505 58 0 0.0 0.0 0.00 0.00 0.00 69 1019.7
20260905204505 59 0 0.0 0.0 0.00 0.00 0.00 69 1019.9
20260905204005 59 0 0.0 0.0 0.00 0.00 0.00 69 1019.8
20260905203505 59 0 0.0 0.0 0.00 0.00 0.00 68 1019.9
20260905203005 60 0 0.0 0.0 0.00 0.00 0.00 67 1019.8
20260905202505 60 0 0.0 0.0 0.00 0.00 0.00 66 1019.9
20260905202005 60 0 0.0 0.0 0.00 0.00 0.00 65 1019.8
20260905201505 60 0 0.0 0.0 0.00 0.00 0.00 65 1019.9
20260905201005 60 0 0.0 0.0 0.00 0.00 0.00 65 1019.9
20260905200505 60 0 0.0 0.0 0.00 0.00 0.00 65 1020.0
20260905195506 61 0 0.0 0.0 0.00 0.00 0.00 65 1020.0
20260905195005 61 0 0.0 0.0 0.00 0.00 0.00 65 1020.0
20260905194505 61 0 0.0 0.0 0.00 0.00 0.00 64 1019.9
20260905194005 62 0 0.0 0.0 0.00 0.00 0.00 65 1020.1
20260905193505 62 0 0.0 0.0 0.00 0.00 0.00 64 1020.1
20260905193006 62 0 0.0 0.0 0.00 0.00 0.00 63 1020.1
20260905192505 63 0 0.0 0.0 0.00 0.00 0.00 62 1019.9
20260905192005 63 0 0.0 0.0 0.00 0.00 0.00 62 1019.8
20260905191505 63 0 0.0 0.0 0.00 0.00 0.00 62 1019.7
20260905191005 64 0 0.0 0.0 0.00 0.00 0.00 57 1019.9
20260905190506 64 0 0.0 0.0 0.00 0.00 0.00 57 1019.8
20260905185505 63 0 0.0 0.0 0.00 0.00 0.00 62 1019.7
20260905185005 63 0 0.0 0.0 0.00 0.00 0.00 61 1019.9
20260905184505 64 0 0.0 0.0 0.00 0.00 0.00 56 1019.7
20260905182505 65 0 0.0 0.0 0.00 0.00 0.00 55 1019.4
20260905182005 65 0 0.0 0.0 0.00 0.00 0.00 54 1019.3
20260905181505 66 0 0.0 0.0 0.00 0.00 0.00 53 1019.2
20260905181006 66 0 0.0 0.0 0.00 0.00 0.00 52 1019.0
20260905180505 67 0 0.0 0.0 0.00 0.00 0.00 52 1019.1
20260905180005 67 0 0.0 0.0 0.00 0.00 0.00 51 1019.1
20260905175505 67 0 0.0 0.0 0.00 0.00 0.00 51 1018.9
20260905175005 67 0 0.0 0.0 0.00 0.00 0.00 50 1018.8
20260905174505 68 0 0.0 0.0 0.00 0.00 0.00 49 1018.7
20260905174005 69 0 0.0 0.0 0.00 0.00 0.00 48 1018.6
20260905173006 70 0 0.0 0.0 0.00 0.00 0.00 47 1018.4
20260905172505 70 0 0.0 0.0 0.00 0.00 0.00 46 1018.5
20260905172005 71 0 0.0 0.0 0.00 0.00 0.00 46 1018.3
20260905171506 71 0 0.0 0.0 0.00 0.00 0.00 45 1018.2
20260905171005 72 0 0.0 0.0 0.00 0.00 0.00 45 1018.2
20260905170505 72 0 0.0 0.0 0.00 0.00 0.00 44 1018.2
20260905170005 73 0 0.0 0.0 0.00 0.00 0.00 42 1018.2
20260905165505 74 0 0.0 0.0 0.00 0.00 0.00 42 1018.1
20260905165005 74 0 0.0 0.0 0.00 0.00 0.00 38 1018.0
20260905164505 75 0 0.0 0.0 0.00 0.00 0.00 39 1017.9
20260905163505 77 0 0.0 0.0 0.00 0.00 0.00 36 1017.8
20260905162505 80 0 0.0 0.0 0.00 0.00 0.00 33 1017.7
20260905162005 80 135 0.0 1.7 0.00 0.00 0.00 32 1017.7
20260905161505 81 171 0.9 2.6 0.00 0.00 0.00 32 1017.8
20260905161005 83 188 0.9 2.6 0.00 0.00 0.00 26 1017.7
20260905160505 83 147 0.9 3.5 0.00 0.00 0.00 26 1017.8
20260905160006 84 173 1.7 4.3 0.00 0.00 0.00 25 1017.9
20260905155505 85 193 1.7 4.3 0.00 0.00 0.00 24 1017.6
20260905155005 85 350 0.9 4.3 0.00 0.00 0.00 24 1017.9
20260905154005 86 116 3.5 6.1 0.00 0.00 0.00 24 1017.6
20260905153505 87 133 3.5 3.5 0.00 0.00 0.00 25 1017.7
20260905152005 88 117 3.5 6.1 0.00 0.00 0.00 24 1017.6
20260905151505 88 116 3.5 6.1 0.00 0.00 0.00 23 1017.5
20260905151005 88 163 2.6 6.1 0.00 0.00 0.00 23 1017.4
20260905150006 88 121 3.5 5.2 0.00 0.00 0.00 23 1017.5
20260905145005 88 21 2.6 3.5 0.00 0.00 0.00 24 1017.3
20260905144005 89 125 3.5 5.2 0.00 0.00 0.00 23 1017.3
20260905143505 89 134 2.6 4.3 0.00 0.00 0.00 24 1017.4
20260905142505 89 346 3.5 8.7 0.00 0.00 0.00 23 1017.4
20260905142006 89 339 4.3 8.7 0.00 0.00 0.00 24 1017.4
20260905141505 89 329 3.5 6.1 0.00 0.00 0.00 24 1017.2
20260905141005 89 294 2.6 3.5 0.00 0.00 0.00 24 1017.3
20260905140505 89 219 1.7 3.5 0.00 0.00 0.00 24 1017.3
20260905140005 89 252 1.7 3.5 0.00 0.00 0.00 24 1017.3
20260905135505 90 94 2.6 4.3 0.00 0.00 0.00 23 1017.2
20260905135005 89 98 3.5 7.0 0.00 0.00 0.00 25 1017.4
20260905134005 89 124 4.3 7.0 0.00 0.00 0.00 25 1017.4
20260905133505 89 137 4.3 7.0 0.00 0.00 0.00 25 1017.4
20260905132005 89 129 2.6 7.0 0.00 0.00 0.00 25 1017.5
20260905125506 88 90 1.7 6.1 0.00 0.00 0.00 25 1017.7
20260905124005 88 331 4.3 6.1 0.00 0.00 0.00 25 1017.9
20260905123505 88 353 2.6 6.1 0.00 0.00 0.00 26 1017.8
20260905123005 87 193 2.6 3.5 0.00 0.00 0.00 27 1018.0
20260905122505 86 30 2.6 5.2 0.00 0.00 0.00 25 1017.8
20260905122005 87 36 3.5 5.2 0.00 0.00 0.00 24 1017.9
20260905121505 87 325 3.5 5.2 0.00 0.00 0.00 25 1017.9
20260905121005 87 308 3.5 4.3 0.00 0.00 0.00 25 1018.0
20260905120505 87 223 2.6 3.5 0.00 0.00 0.00 25 1018.2
20260905120007 87 161 2.6 3.5 0.00 0.00 0.00 27 1018.2
20260905115505 87 345 2.6 3.5 0.00 0.00 0.00 27 1018.1
20260905115006 87 305 2.6 7.0 0.00 0.00 0.00 27 1018.4
20260905114506 86 316 1.7 7.0 0.00 0.00 0.00 26 1018.3
20260905114006 86 98 1.7 3.5 0.00 0.00 0.00 25 1018.2
20260905113505 86 121 2.6 5.2 0.00 0.00 0.00 25 1018.3
20260905113005 87 122 2.6 6.1 0.00 0.00 0.00 26 1018.4
20260905111506 86 116 3.5 6.1 0.00 0.00 0.00 27 1018.4
20260905111006 86 226 3.5 7.0 0.00 0.00 0.00 27 1018.2
20260905110505 86 203 5.2 7.0 0.00 0.00 0.00 26 1018.4
20260905105505 86 163 3.5 6.1 0.00 0.00 0.00 28 1018.2
20260905105005 86 242 3.5 7.0 0.00 0.00 0.00 28 1018.2
20260905104505 86 277 3.5 7.0 0.00 0.00 0.00 28 1018.2
20260905104005 86 337 2.6 5.2 0.00 0.00 0.00 27 1018.2
20260905103005 85 59 4.3 7.0 0.00 0.00 0.00 27 1018.1
20260905102006 85 117 5.2 7.0 0.00 0.00 0.00 28 1018.2
20260905101505 85 149 4.3 7.0 0.00 0.00 0.00 27 1018.4
20260905101005 85 317 2.6 6.1 0.00 0.00 0.00 28 1018.3
20260905100505 85 328 2.6 5.2 0.00 0.00 0.00 29 1018.3
20260905100006 85 66 3.5 6.1 0.00 0.00 0.00 28 1018.5
20260905095006 85 351 2.6 7.0 0.00 0.00 0.00 28 1018.3
20260905094005 84 136 6.1 7.8 0.00 0.00 0.00 27 1018.4
20260905093006 85 28 3.5 7.0 0.00 0.00 0.00 29 1018.5
20260905092505 84 236 3.5 7.0 0.00 0.00 0.00 29 1018.4
20260905091505 84 46 1.7 7.0 0.00 0.00 0.00 30 1018.5
20260905091005 83 338 3.5 7.0 0.00 0.00 0.00 30 1018.4
20260905090505 84 282 4.3 7.0 0.00 0.00 0.00 29 1018.6
20260905085505 84 146 3.5 6.1 0.00 0.00 0.00 30 1018.6
20260905084505 83 147 5.2 9.6 0.00 0.00 0.00 29 1018.5
20260905084005 83 9 4.3 7.0 0.00 0.00 0.00 30 1018.5
20260905083505 83 355 3.5 7.0 0.00 0.00 0.00 31 1018.5
20260905083005 82 312 3.5 6.1 0.00 0.00 0.00 30 1018.4
20260905082505 82 286 2.6 6.1 0.00 0.00 0.00 32 1018.5
20260905081505 82 7 2.6 7.0 0.00 0.00 0.00 32 1018.8